Regional Weather Roundup
Issued by NWS

Home | Current Version | Previous Version | Text Only | Print | Product List | Glossary Off
Versions: 1 2 3 4 5 6 7 8 9 10 11 12 13 14 15 16 17 18 19 20 21 22 23 24 25 26 27 28 29 30 31 32 33 34 35 36 37 38 39 40 41 42 43 44 45 46 47 48 49 50

508
ASUS45 KTFX 311010
RWRMT
MONTANA REGIONAL WEATHER ROUNDUP
NATIONAL WEATHER SERVICE GREAT FALLS MT
400 AM MDT WED AUG 31 2016

NOTE: "FAIR" INDICATES FEW OR NO CLOUDS BELOW 12000 FEET WITH NO
SIGNIFICANT WEATHER AND/OR OBSTRUCTIONS TO VISIBILITY.

MTZ001>007-043-311100-
WEST OF THE DIVIDE

CITY           SKY/WX    TMP DP  RH WIND       PRES   REMARKS
KALISPELL        N/A     63  49  60 N7        29.92R
MISSOULA         N/A     62  41  46 N3        29.97R
BUTTE          CLEAR     53  31  42 S5        30.13R
MULLAN PASS      N/A     57  33  40 N3        30.13S
DEER LODGE       N/A     54  37  54 CALM      30.09R
EUREKA           N/A     57  46  67 CALM        N/A
HAMILTON         N/A     57  39  51 CALM      29.98R
LIBBY            N/A     59  45  58 CALM      29.95R
PLAINS           N/A     56  45  66 CALM      29.95R
$$

MTZ008-052>055-311100-
SOUTHWEST MONTANA

CITY           SKY/WX    TMP DP  RH WIND       PRES   REMARKS
BOZEMAN        CLOUDY    62  41  46 W5        30.05F
DILLON         CLEAR     56  26  31 SE8       30.08S
W YELLOWSTONE  CLOUDY    39  25  56 CALM      30.27R
ENNIS          CLEAR     64  27  24 S10       30.15S
THREE FORKS      N/A     55  19  24 CALM      30.04
TWIN BRIDGES     N/A     58  26  29 SE2       30.06R
$$

MTZ009-010-012-014-046-048-049-054-311100-
EAST SLOPES AND CENTRAL MONTANA

CITY           SKY/WX    TMP DP  RH WIND       PRES   REMARKS
CUT BANK         N/A     64  49  57 E3        29.99F
GREAT FALLS    MOCLDY    60  47  61 W5        29.99R
MALMSTROM AFB  CLOUDY    66  50  56 MISG      29.99R
HELENA         CLEAR     63  39  41 W5        30.02S
CHOTEAU          N/A     61  48  63 E3        30.02R
CONRAD           N/A     62  54  75 NE8       30.00F
$$

MTZ011-013-016-021-045-047-050-051-311100-
NORTH CENTRAL MONTANA

CITY           SKY/WX    TMP DP  RH WIND       PRES   REMARKS
HAVRE          MOCLDY    62  56  80 NE13      29.96F
LEWISTOWN      CLOUDY    61  45  55 SW3       30.05F
N BAR RANCH      N/A     61  45  55 W6        30.10F
CHINOOK          N/A     63  57  82 E6        29.98F
$$

MTZ017>020-022>027-061-062-311100-
NORTHEAST MONTANA

CITY           SKY/WX    TMP DP  RH WIND       PRES   REMARKS
GLASGOW        CLOUDY    65  53  65 E12       29.99S
JORDAN           N/A     61  55  81 CALM      29.99S
SIDNEY         CLEAR     63  54  72 N5        30.07F
WOLF POINT     CLEAR     65  52  62 NE9       30.02S
PLENTYWOOD       N/A     64  52  63 E12       30.08F
POPLAR           N/A     66  54  63 E10       30.03F
SCOBEY           N/A     64  46  52 E7        30.05F
$$

MTZ028>42-056>058-311100-
SOUTHCENTRAL AND SOUTHEAST MONTANA

CITY           SKY/WX    TMP DP  RH WIND       PRES   REMARKS
BAKER          CLEAR     61  56  83 SE10      30.11R
BILLINGS       CLOUDY    67  45  45 CALM      30.03R
LIVINGSTON     PTCLDY    57  39  51 S7        30.09S
MILES CITY     PTCLDY    73  50  44 S10       30.01S
EKALAKA          N/A     74  52  46 SE13      30.10R
FORSYTH          N/A     79  45  29 S14       29.98S
LAUREL           N/A     65  42  43 CALM      30.02F
ROUNDUP          N/A     58  44  59 S8        29.95S
$$

REGIONAL REPORTS...DAKOTAS

CITY           SKY/WX    TMP DP  RH WIND       PRES   REMARKS
WILLISTON      CLEAR     67  53  61 VRB5      30.10F
MINOT          PTCLDY    58  54  86 E5        30.19S
DICKINSON      CLEAR     56  54  93 E9        30.11F
CROSBY           N/A     55  50  82 E8        30.17S
WATFORD CITY     N/A     63  54  72 E12G17    30.10F
BISMARCK       CLOUDY    65  55  70 E13       30.18S
GRAND FORKS    PTCLDY    50  47  89 NW5       30.23R
FARGO          CLEAR     52  51  97 NE3       30.22S FOG
BUFFALO SD       N/A     62  59  90 S10       30.07S
RAPID CITY     CLEAR     58  53  84 SE3       30.17F
$$

REGIONAL REPORTS...WYOMING/IDAHO/WASHINGTON

CITY           SKY/WX    TMP DP  RH WIND       PRES   REMARKS
GILLETTE       CLEAR     63  52  67 S14       30.18F
SHERIDAN       CLEAR     65  39  38 S12       30.08S
BUFFALO WY     CLEAR     69  43  38 S14       30.19F
CODY           CLOUDY    61  32  33 CALM      30.15F
YELLOWSTONE LA   N/A     44  33  65 NW3       30.38S
IDAHO FALLS    CLOUDY    51  39  63 N5        30.08R
SALMON         CLOUDY    57  41  54 NE15      30.01F
BOISE            N/A     67  43  41 NE12      29.86F
SPOKANE          N/A     58  42  55 S7        29.95S
$$

REGIONAL REPORTS...ALBERTA

CITY           SKY/WX    TMP DP  RH WIND       PRES   REMARKS
EDMONTON       PTCLDY    57  48  72 NE8       29.99F
CALGARY        MOCLDY    61  55  82 E8        29.97F
LETHBRIDGE     CLOUDY    64  54  68 SW8       29.97R
MEDICINE HAT   PTCLDY    68  57  68 NE8       29.95F
WATERTON GATE    N/A     52  46  82 SW7         N/A
ONEFOUR          N/A     63  55  77 E14         N/A
$$

REGIONAL REPORTS...SASKATCHEWAN

CITY           SKY/WX    TMP DP  RH WIND       PRES   REMARKS
SWIFT CURRENT  CLEAR     57  50  77 E10       30.07S
REGINA         CLEAR     61  50  67 E16G22    30.16S
SASKATOON      CLEAR     55  46  71 E7        30.18S
CYPRESS HILLS    N/A     63  54  72 SE10        N/A
VAL MARIE        N/A     57  52  82 NE7         N/A
ROCKGLEN         N/A     57  48  72 E5          N/A
$$




USA.gov is the U.S. government's official web portal to all federal, state and local government web resources and services.